Berlin, NH

11:40 AM EST on November 18, 2017 (GMT -0500)
Berlin Municipal

Weather History for KBML - December, 1997

Change the Weather History Date:

Monday, December 22, 1997

  Actual Average Record
Temperature  
Mean Temperature 4 °F -  
Max Temperature 19 °F 26 °F 48 °F (1998)
Min Temperature -11 °F 7 °F -11 °F (1997)
Degree Days  
Heating Degree Days 61    
Moisture  
Dew Point -6 °F    
Average Humidity 74    
Maximum Humidity 87    
Minimum Humidity 43    
Precipitation  
Precipitation 0.00 in - - ()
Sea Level Pressure  
Sea Level Pressure 30.42 in    
Wind  
Wind Speed 0 mph (WNW)    
Max Wind Speed 4 mph    
Max Gust Speed -    
Visibility 10 miles    
Events      
Averages and records for this station are not official NWS values.
T = Trace of Precipitation, MM = Missing Value Source: NWS Daily Summary

Daily Weather History Graph

Daily Weather History Graph

Search for Another Location

Airport or City:

Trip Planner

Search our weather history database for the weather conditions in past years. The results will help you decide how hot, cold, wet, or windy it might be!

Date:

Astronomy

Dec. 22, 1997 Rise Set
Actual Time 7:18 AM EST 4:08 PM EST
Civil Twilight 6:45 AM EST 4:41 PM EST
Nautical Twilight 6:08 AM EST 5:18 PM EST
Astronomical Twilight 5:32 AM EST 5:54 PM EST
Moon No Moon Rise 12:11 PM EST (12/22)
Length of Visible Light 9h 56m
Length of Day
8h 49m
Last Quarter, 42% of the Moon is Illuminated
Dec 22
Last Quarter
Dec 29
New
Jan 5
First Quarter
Jan 12
Full
Jan 20
Last Quarter

Hourly Weather History & Observations

Time (EST) Temp. Windchill Dew Point Humidity Pressure Visibility Wind Dir Wind Speed Gust Speed Precip Events Conditions
12:52 AM -5.1 °F - -9.0 °F 83% 30.39 in 10.0 mi Calm Calm - N/A   Clear
1:52 AM -6.0 °F - -9.9 °F 83% 30.42 in 10.0 mi Calm Calm - N/A   Clear
2:52 AM -7.1 °F - -11.0 °F 83% 30.45 in 10.0 mi Calm Calm - N/A   Clear
3:52 AM -7.1 °F - -11.9 °F 79% 30.45 in 10.0 mi Calm Calm - N/A   Clear
4:52 AM -9.9 °F - -15.0 °F 78% 30.46 in 10.0 mi Calm Calm - N/A   Clear
5:52 AM -9.9 °F - -14.1 °F 82% 30.47 in 10.0 mi Calm Calm - N/A   Clear
6:52 AM -11.0 °F - -16.1 °F 78% 30.48 in 10.0 mi Calm Calm - N/A   Clear
7:52 AM -9.9 °F - -15.0 °F 78% 30.49 in 10.0 mi Calm Calm - N/A   Clear
8:52 AM -7.1 °F - -9.9 °F 87% 30.50 in 10.0 mi Calm Calm - N/A   Clear
9:52 AM 1.9 °F - -6.0 °F 69% 30.51 in 10.0 mi Calm Calm - N/A   Clear
10:52 AM 10.0 °F - 1.9 °F 70% 30.47 in 10.0 mi Calm Calm - N/A   Clear
11:52 AM 15.1 °F - 1.9 °F 56% 30.43 in 10.0 mi Calm Calm - N/A   Clear
12:52 PM 16.0 °F - 1.9 °F 54% 30.43 in 10.0 mi Calm Calm - N/A   Clear
1:52 PM 19.0 °F - -0.0 °F 43% 30.40 in 10.0 mi Calm Calm - N/A   Clear
2:52 PM 19.9 °F 14.9 °F 1.0 °F 44% 30.38 in 10.0 mi WNW 3.5 mph - N/A   Clear
3:52 PM 17.1 °F - 3.0 °F 54% 30.37 in 10.0 mi Calm Calm - N/A   Clear
4:52 PM 9.0 °F - 1.9 °F 73% 30.37 in 10.0 mi Calm Calm - N/A   Clear
5:52 PM 5.0 °F - 1.0 °F 84% 30.37 in 8.0 mi Calm Calm - N/A   Clear
6:52 PM 1.0 °F - -2.9 °F 83% 30.37 in 10.0 mi Calm Calm - N/A   Clear
7:52 PM -2.0 °F - -6.0 °F 83% 30.39 in 10.0 mi Calm Calm - N/A   Clear
8:52 PM -0.0 °F - -4.0 °F 83% 30.37 in 10.0 mi Calm Calm - N/A   Clear
9:52 PM -2.0 °F - -6.0 °F 83% 30.35 in 10.0 mi Calm Calm - N/A   Clear
10:52 PM -2.9 °F - -7.1 °F 82% 30.33 in 10.0 mi Calm Calm - N/A   Clear
11:52 PM -4.0 °F - -8.0 °F 83% 30.31 in 10.0 mi Calm Calm - N/A   Clear